STARLINK-11490, 62219

Orbit data source: Space-Track

STARLINK-11490, 62219 is a payload satellite owned by SpaceX/Seattle (US) in LEO that was launched on Thu, 05 Dec 2024 UTC via an FALCON 9 launch vehicle from the Air Force Western Test Range (AFWTR). Payload-class satellites include a variety of spacecraft equipped with specific instruments for various scientific and technological missions. These include communications satellites like Starlink; space stations such as the ISS; scientific satellites like the Hubble; Earth observation satellites from companies like Planet Labs, Umbra, and HawkEye 360; GPS; miniature CubeSats for education and research; and military/defense satellites.

Loading next visibility...
Identifier
62219, 2024-231B
Orbit
LEO
Country
Flag of USUS
Related business
Manufacturer
SpaceX/Seattle
Mission
Operational Commercial Communications
Bus & Motor
STARLINK V2MD, Unknown motor
Mass
960 kg wet, ~910 kg dry
Launch date (UTC)
2024-12-05 (1 year ago)
Launch vehicle
FALCON 9
Launch site
Air Force Western Test Range (AFWTR)
Object type
Payload
Rocket body
Debris
Shape & HBR
Box + 2 Pan, 18.1 m
Radar Cross Section
36.964 m², Large (>1 m²)

Expand to show TLE details & history
Last TLE update: 23 hours ago

TLE from 23 hours ago
0 STARLINK-11490
1 62219U 24231B   26033.18174128  .00161175  00000-0  13056-2 0  9996
2 62219  53.1568 276.3737 0000822  73.3790 286.7319 15.69782366 67839
Epoch: 2026-02-02T04:21Z
TLE epoch observation values (Epoch: 2026-02-02T04:21:42.446Z)
Latitude
0.00004°
Longitude
78.56617°
Altitude
360.275 km
Speed
7.694 km/s
True Right ascension
18h 25m 29s
True Declination
0° 00' 00"
Sunlit
Object was in daylight at epoch
Visualization orbit readout
Latitude
Unknown
Longitude
Unknown
Altitude
Unknown
Speed
Unknown
Apparent Right ascension
Unknown
Apparent Declination
Unknown
Sunlit
N/A
Visualization observer readout
Local Sidereal Time
05:25:10
Azimuth
Unknown
Elevation
Unknown
Doppler factor
Unknown
Orbital elements
Apogee altitude
360.335 km
Perigee altitude
359.227 km
Semi-major axis
6,737.918 km
Eccentricity
0.00008
Inclination
53.1568°
RAAN
276.3737°
Arg. of periapsis
73.379°
True anomaly
286.72288°
Mean anomaly
286.7319°
Eccentric anomaly
286.72739°
Mean motion
3.92423 °/min
Orbital period
91.74 mins
BSTAR
0.0013056
Loading maneuver chart data...
Computing Atmospheric mass density...
Loading historical data...
Loading historical data...
Loading historical data...
Loading historical data...
Loading historical data...
Loading historical data...
Loading historical data...

Documentation

Showing up to 5 results
|